FW6664 Weather Reports


Display with metric or nautical units.
time (UTC)temp
F
wind
direction
speed
MPH
gust
MPH
rain 1hr
in
rain 24hr
in
rain mn
in
humidity
%
barometer
mb
20260503025325 61 288 3.0 0.0 0.00 0.00 0.00 33 1017.0
20260503025020 61 288 1.0 3.0 0.00 0.00 0.00 33 1017.0
20260503024903 61 288 2.0 0.0 0.00 0.00 0.00 33 1017.0
20260503024610 61 288 2.0 3.0 0.00 0.00 0.00 33 1017.0
20260503024359 62 288 1.0 0.0 0.00 0.00 0.00 33 1017.0
20260503024022 61 288 2.0 3.0 0.00 0.00 0.00 33 1017.0
20260503023855 62 288 3.0 0.0 0.00 0.00 0.00 33 1017.0
20260503023555 61 286 2.0 4.0 0.00 0.00 0.00 33 1017.0
20260503023332 62 235 3.0 0.0 0.00 0.00 0.00 33 1017.0
20260503023047 62 236 2.0 5.0 0.00 0.00 0.00 33 1017.0
20260503022826 62 294 1.0 0.0 0.00 0.00 0.00 33 1017.0
20260503022521 62 292 2.0 5.0 0.00 0.00 0.00 33 1017.0
20260503022345 63 251 4.0 0.0 0.00 0.00 0.00 33 1017.0
20260503022017 62 237 3.0 6.0 0.00 0.00 0.00 33 1017.0
20260503021904 63 237 3.0 0.0 0.00 0.00 0.00 33 1017.0
20260503021555 62 235 3.0 6.0 0.00 0.00 0.00 33 1017.0
20260503021340 63 227 3.0 0.0 0.00 0.00 0.00 33 1017.0
20260503021020 63 238 3.0 6.0 0.00 0.00 0.00 33 1017.0
20260503020834 64 237 3.0 0.0 0.00 0.00 0.00 33 1017.0
20260503020514 63 295 2.0 6.0 0.00 0.00 0.00 33 1017.0
20260503020350 64 221 2.0 0.0 0.00 0.00 0.00 33 1017.0
20260503020048 64 236 2.0 3.0 0.00 0.00 0.00 33 1017.0
20260503015825 64 295 3.0 0.0 0.00 0.00 0.00 33 1017.0
20260503015536 64 253 2.0 4.0 0.00 0.00 0.00 33 1017.0
20260503015402 65 279 4.0 0.0 0.00 0.00 0.00 33 1017.0
20260503015010 64 224 3.0 5.0 0.00 0.00 0.00 33 1017.0
20260503014856 65 290 3.0 0.0 0.00 0.00 0.00 33 1017.0
20260503014542 64 245 2.0 5.0 0.00 0.00 0.00 33 1017.0
20260503014332 65 267 1.0 0.0 0.00 0.00 0.00 33 1017.0
20260503014030 65 267 3.0 5.0 0.00 0.00 0.00 33 1017.0
20260503013825 65 254 3.0 0.0 0.00 0.00 0.00 33 1017.0
20260503013524 65 224 4.0 5.0 0.00 0.00 0.00 33 1017.0
20260503013342 66 204 2.0 0.0 0.00 0.00 0.00 33 1017.0
20260503013023 65 232 3.0 4.0 0.00 0.00 0.00 33 1017.0
20260503012857 66 280 1.0 0.0 0.00 0.00 0.00 33 1017.0
20260503012551 66 279 3.0 6.0 0.00 0.00 0.00 33 1017.0
20260503012331 66 276 4.0 0.0 0.00 0.00 0.00 33 1017.0
20260503012040 66 277 3.0 6.0 0.00 0.00 0.00 33 1017.0
20260503011828 67 279 2.0 0.0 0.00 0.00 0.00 33 1017.0
20260503011514 66 207 5.0 6.0 0.00 0.00 0.00 33 1017.0
20260503011344 67 244 2.0 0.0 0.00 0.00 0.00 33 1017.0
20260503011006 67 292 4.0 5.0 0.00 0.00 0.00 33 1017.0
20260503010839 67 280 4.0 0.0 0.00 0.00 0.00 33 1017.0
20260503010555 67 281 2.0 5.0 0.00 0.00 0.00 33 1017.0
20260503010334 67 291 2.0 0.0 0.00 0.00 0.00 33 1017.0
20260503010049 67 288 4.0 6.0 0.00 0.00 0.00 33 1017.0
20260503005834 67 288 5.0 0.0 0.00 0.00 0.00 33 1017.0
20260503005544 67 266 3.0 6.0 0.00 0.00 0.00 33 1017.0
20260503005330 68 281 8.0 0.0 0.00 0.00 0.00 33 1017.0
20260503005037 68 243 3.0 6.0 0.00 0.00 0.00 33 1017.0
20260503004826 68 281 5.0 0.0 0.00 0.00 0.00 33 1017.0
20260503004532 68 244 3.0 7.0 0.00 0.00 0.00 33 1017.0
20260503004403 69 257 5.0 0.0 0.00 0.00 0.00 33 1017.0
20260503004102 68 213 3.0 7.0 0.00 0.00 0.00 33 1017.0
20260503004007 68 227 3.0 7.0 0.00 0.00 0.00 33 1017.0
20260503003837 69 259 3.0 0.0 0.00 0.00 0.00 33 1017.0
20260503003538 69 264 3.0 6.0 0.00 0.00 0.00 33 1017.0
20260503003334 70 214 11.0 0.0 0.00 0.00 0.00 33 1017.0
20260503003028 70 275 2.0 8.0 0.00 0.00 0.00 33 1017.0
20260503002829 71 295 4.0 0.0 0.00 0.00 0.00 33 1017.0
20260503002523 71 298 4.0 8.0 0.00 0.00 0.00 33 1017.0
20260503002329 71 274 7.0 0.0 0.00 0.00 0.00 33 1017.0
20260503002020 71 217 3.0 6.0 0.00 0.00 0.00 33 1017.0
20260503001845 72 292 10.0 0.0 0.00 0.00 0.00 33 1017.0
20260503001558 72 294 5.0 6.0 0.00 0.00 0.00 33 1017.0
20260503001403 72 263 4.0 0.0 0.00 0.00 0.00 33 1017.0
20260503001018 71 299 3.0 7.0 0.00 0.00 0.00 33 1017.0
20260503000837 72 182 3.0 0.0 0.00 0.00 0.00 33 1017.0
20260503000520 72 238 6.0 7.0 0.00 0.00 0.00 33 1017.0
20260503000352 73 257 7.0 0.0 0.00 0.00 0.00 33 1017.0
20260503000042 72 297 5.0 7.0 0.00 0.00 0.00 33 1017.0
20260502235848 73 256 5.0 0.0 0.00 0.00 0.00 33 1017.0
20260502235514 72 277 4.0 7.0 0.00 0.00 0.00 33 1017.0
20260502235344 73 295 6.0 0.0 0.00 0.00 0.00 33 1017.0
20260502235009 72 285 4.0 8.0 0.00 0.00 0.00 33 1017.0
20260502234839 72 275 5.0 0.0 0.00 0.00 0.00 33 1017.0
20260502234614 72 218 5.0 8.0 0.00 0.00 0.00 33 1017.0
20260502234334 73 283 3.0 0.0 0.00 0.00 0.00 33 1017.0
20260502234051 72 289 6.0 6.0 0.00 0.00 0.00 33 1017.0
20260502233830 73 297 11.0 0.0 0.00 0.00 0.00 33 1017.0
20260502233545 72 262 5.0 12.0 0.00 0.00 0.00 33 1017.0
20260502233345 73 235 5.0 0.0 0.00 0.00 0.00 33 1017.0
20260502233048 73 217 5.0 12.0 0.00 0.00 0.00 33 1017.0
20260502232841 73 286 13.0 0.0 0.00 0.00 0.00 33 1017.0
20260502232531 73 292 6.0 8.0 0.00 0.00 0.00 33 1017.0
20260502232336 73 287 8.0 0.0 0.00 0.00 0.00 33 1017.0
20260502232058 73 286 5.0 8.0 0.00 0.00 0.00 33 1017.0
20260502232002 73 291 5.0 8.0 0.00 0.00 0.00 33 1017.0
20260502231831 73 263 9.0 0.0 0.00 0.00 0.00 33 1017.0
20260502231604 73 263 6.0 7.0 0.00 0.00 0.00 33 1017.0
20260502231407 73 221 3.0 0.0 0.00 0.00 0.00 33 1017.0
20260502231022 72 273 4.0 12.0 0.00 0.00 0.00 33 1017.0
20260502230840 73 255 5.0 0.0 0.00 0.00 0.00 33 1017.0
20260502230553 73 253 7.0 12.0 0.00 0.00 0.00 33 1017.0
20260502230355 73 307 6.0 0.0 0.00 0.00 0.00 33 1017.0
20260502230024 73 280 7.0 9.0 0.00 0.00 0.00 33 1017.0
20260502225831 73 296 8.0 0.0 0.00 0.00 0.00 33 1017.0
20260502210347 76 273 2.0 0.0 0.00 0.00 0.00 33 1017.0
20260502210033 75 359 5.0 5.0 0.00 0.00 0.00 33 1017.0
20260502170337 61 347 0.0 0.0 0.00 0.00 0.00 33 1017.0
20260502150337 59 1 0.0 0.0 0.00 0.00 0.00 33 1017.0
20260502090504 58 0 0.0 0.0 0.00 0.35 0.00 33 1017.0
20260502090344 59 0 0.0 0.0 0.00 0.00 0.00 33 1017.0
20260502034327 59 205 0.0 0.0 0.00 0.00 0.00 33 1017.0
20260502034032 58 205 1.0 3.0 0.00 0.35 0.00 33 1017.0
20260502033845 59 205 1.0 0.0 0.00 0.00 0.00 33 1017.0
20260502033526 58 205 0.0 1.0 0.00 0.35 0.00 33 1017.0
20260502033341 59 205 0.0 0.0 0.00 0.00 0.00 33 1017.0
20260502033028 59 205 0.0 1.0 0.00 0.35 0.00 33 1017.0
20260502032838 59 205 2.0 0.0 0.00 0.00 0.00 33 1017.0
20260502032514 59 205 0.0 2.0 0.00 0.35 0.00 33 1017.0
20260502032333 59 205 1.0 0.0 0.00 0.00 0.00 33 1017.0
20260502032040 59 205 0.0 2.0 0.00 0.35 0.00 33 1017.0
20260502031849 59 205 0.0 0.0 0.00 0.00 0.00 33 1017.0
20260502031513 59 205 0.0 1.0 0.00 0.35 0.00 33 1017.0
20260502031342 59 205 0.0 0.0 0.00 0.00 0.00 33 1017.0
20260502031006 59 205 0.0 1.0 0.00 0.35 0.00 33 1017.0
20260502030858 60 205 1.0 0.0 0.00 0.00 0.00 33 1017.0
20260502030533 59 205 0.0 0.0 0.00 0.35 0.00 33 1017.0
20260502030330 60 205 2.0 0.0 0.00 0.00 0.00 33 1017.0
20260502030027 59 205 0.0 1.0 0.00 0.35 0.00 33 1017.0
20260502025848 60 205 0.0 0.0 0.00 0.00 0.00 33 1017.0
20260502025554 59 205 0.0 2.0 0.00 0.35 0.00 33 1017.0